Location: Mapua
(41.2500°S, 173.1000°E)
Time: 13:34:46
(UTC+12:00)

Tiangong 2 - Visible Passes

Search period start: 23 May 2018 00:00
Search period end: 02 June 2018 00:00
Orbit: 382 x 385 km, 42.8° (Epoch: 22 May)

Date Brightness Start Highest point End Pass type
(mag) Time Alt. Az. Time Alt. Az. Time Alt. Az.
25 May 4.4 06:44:42 10° NNE 06:45:53 12° NE 06:47:04 10° ENE visible
27 May 3.7 06:20:20 10° NNW 06:22:46 20° NNE 06:25:11 10° E visible
28 May 4.2 05:22:20 11° NNE 05:23:10 11° NE 05:24:17 10° ENE visible
28 May 1.9 06:56:15 10° NW 06:59:24 52° NNE 07:02:34 10° E visible
29 May 2.7 05:58:15 22° NNW 05:59:40 32° NNE 06:02:36 10° E visible
30 May 4.4 05:01:44 13° ENE 05:01:44 13° ENE 05:02:24 10° E visible
30 May 1.2 06:33:58 16° WNW 06:36:25 79° NNE 06:39:40 10° ESE visible
31 May 2.3 05:37:16 42° ENE 05:37:16 42° ENE 05:39:46 10° E visible
31 May 1.2 07:10:08 10° W 07:13:21 66° S 07:16:35 10° ESE visible
01 Jun 1.0 06:12:40 47° W 06:13:28 79° S 06:16:42 10° ESE visible
